(204) Kallisto
ephemeris date magn radius delta ra dec elong phase
Today13 Jun 202613.32.335 AU1.889 AU12h17m-01°01'102.9°25.1°
Opposition9 Sep 202712.32.545 AU1.545 AU23h00m+02°46'171.5°3.4°
(204) Kallisto - 2026-06-13
astro.vanbuitenen.nl


 
-1 year
-1 month
-1 day
Now
+1 day
+1 month
+1 year

The interactive orbit chart above shows the body's path through the solar system and its position at the given date. Green and blue lines are shown perpendicular to the ecliptic plane: Green if the path is above the ecliptic plane, blue if it is below. (Left-click and drag to rotate the view; Right-click and drag to move the view; Use scroll wheel to zoom in our out.)

The orbital elements of Kallisto are:

            e (Eccentricity)                : 0.1761360
            a (Semimajor axis)              : 2.6696947
            i (Inclination)                 : 8.27108
            Ω (Longitude of ascending node) : 204.89542
            ω (Argument of perihelion)      : 56.98946
            M (Mean anomaly)                : 321.57039
            Epoch                           : 2026 Jun 09

            L (Longitude of perihelion)     : 261.61061
            B (Latitude of perihelion)      : 6.92869
            P (Orbital period in years)     : 4.36            
        

The light curve chart below shows the estimated development of the minor planet's magnitude.


The all-sky chart below shows the path of the minor planet over the same period as the light curve. The current position is marked yellow.





The following chart shows the path of the minor planet in the next few days. The field of view is optimized for (~10x50) binoculars and finderscopes.




Ephemerides:
Date       Time       RA (2000)    DEC (2000)    delta   radius  elong  phase   PA    magn
2026-06-13 00:00 UT   12 17 54.9   -01 01 12     1.889    2.335  102.9   25.1   114   13.3 
2026-06-13 02:37 UT   12 17 59.8   -01 01 25     1.890    2.335  102.8   25.1   114   13.3 
2026-06-14 00:00 UT   12 18 40.8   -01 03 08     1.899    2.333  102.1   25.2   114   13.4 
2026-06-15 00:00 UT   12 19 27.8   -01 05 14     1.909    2.332  101.3   25.3   114   13.4 
2026-06-16 00:00 UT   12 20 16.1   -01 07 30     1.919    2.331  100.6   25.4   114   13.4 
2026-06-17 00:00 UT   12 21 05.5   -01 09 55     1.930    2.329   99.8   25.5   114   13.4 
2026-06-18 00:00 UT   12 21 56.2   -01 12 30     1.940    2.328   99.1   25.5   113   13.4 
2026-06-19 00:00 UT   12 22 47.9   -01 15 14     1.950    2.326   98.3   25.6   113   13.4 
2026-06-20 00:00 UT   12 23 40.8   -01 18 07     1.961    2.325   97.6   25.7   113   13.4 
2026-06-21 00:00 UT   12 24 34.9   -01 21 09     1.971    2.323   96.9   25.7   113   13.4 
2026-06-22 00:00 UT   12 25 30.0   -01 24 20     1.981    2.322   96.2   25.8   113   13.5 
2026-06-23 00:00 UT   12 26 26.2   -01 27 39     1.992    2.320   95.4   25.8   113   13.5 
2026-06-24 00:00 UT   12 27 23.5   -01 31 08     2.002    2.319   94.7   25.9   113   13.5 
2026-06-25 00:00 UT   12 28 21.8   -01 34 44     2.013    2.318   94.0   25.9   113   13.5 
2026-06-26 00:00 UT   12 29 21.2   -01 38 29     2.023    2.316   93.3   26.0   113   13.5 
2026-06-27 00:00 UT   12 30 21.6   -01 42 21     2.034    2.315   92.6   26.0   113   13.5 
2026-06-28 00:00 UT   12 31 22.9   -01 46 22     2.044    2.313   91.9   26.1   113   13.5 
2026-06-29 00:00 UT   12 32 25.3   -01 50 30     2.055    2.312   91.2   26.1   113   13.5 
2026-06-30 00:00 UT   12 33 28.6   -01 54 46     2.065    2.311   90.6   26.1   113   13.5 
2026-07-01 00:00 UT   12 34 32.9   -01 59 10     2.075    2.309   89.9   26.1   113   13.6 
2026-07-02 00:00 UT   12 35 38.1   -02 03 40     2.086    2.308   89.2   26.1   113   13.6 
2026-07-03 00:00 UT   12 36 44.2   -02 08 18     2.096    2.306   88.5   26.1   113   13.6 
2026-07-04 00:00 UT   12 37 51.3   -02 13 03     2.107    2.305   87.9   26.2   113   13.6 
2026-07-05 00:00 UT   12 38 59.3   -02 17 55     2.117    2.304   87.2   26.2   113   13.6 
2026-07-06 00:00 UT   12 40 08.1   -02 22 54     2.128    2.302   86.6   26.2   113   13.6 
2026-07-07 00:00 UT   12 41 17.9   -02 27 59     2.138    2.301   85.9   26.1   113   13.6 
2026-07-08 00:00 UT   12 42 28.5   -02 33 11     2.149    2.300   85.3   26.1   113   13.6 
2026-07-09 00:00 UT   12 43 39.9   -02 38 29     2.159    2.298   84.6   26.1   113   13.6 
2026-07-10 00:00 UT   12 44 52.2   -02 43 54     2.169    2.297   84.0   26.1   113   13.6 
2026-07-11 00:00 UT   12 46 05.4   -02 49 25     2.180    2.296   83.3   26.1   113   13.7 
2026-07-12 00:00 UT   12 47 19.4   -02 55 02     2.190    2.294   82.7   26.1   113   13.7 
2026-07-13 00:00 UT   12 48 34.2   -03 00 45     2.201    2.293   82.1   26.0   113   13.7 


    Terminology:
            
    delta:  distance between minor planet and earth in AU
    radius: distance between minor planet and sun in AU
    magn:   magnitude (brightness) estimate    
    ra:     right ascension in hours (24h = 360deg)
    dec:    declination in degrees
    elong:  elongation in degrees (angle sun-earth-minor planet)    
    phase:  phase angle in degrees (angle sun-minor planet-earth)        
    AU:     Astronomical Unit (mean distance between earth and sun: 149597870.7 km
    

Orbital elements provided by the MPC (Minor Planet Center).
Calculations by a modified version of AAPlus, a C# implementation of the AA+ project by PJ Naughter from the algorithms presented in the book "Astronomical Algorithms" by Jean Meeus.
NGC2000 dso catalog and star labels from VizieR as provided by the Strasbourg astronomical Data Center.
Tycho2 catalog from the ESO archive.